Theta_e
331 333 334 336 341 343 343 343 341 339 339 340 340 339 338 339 339 337 338 337 339 337 337 336 336 335 337 335 336 337 336 335 339 340 340 338 340 339 338 342 340 341 341 342 345 345 344 343 342 342 342 340 342 340 339 340 341 341 338 340 336 332 334 335 334 334 330 330 331 331 331 333 334 332 330 331 332 333 334 332 332 332 333 334 334
326 332 336 337 337 342 341 341 339 336 336 339 339 338 338 339 337 338 338 337 336 339 337 337 337 335 335 335 335 337 335 337 337 339 339 339 339 340 339 340 340 340 343 342 345 344 343 343 341 342 343 340 340 340 340 340 339 339 338 335 337 333 334 335 334 332 327 325 324 324 327 329 328 330 330 329 331 333 332 332 331 332 332 333 333
323 328 333 334 338 340 339 339 339 338 337 338 339 337 337 338 338 338 339 334 336 337 338 337 339 341 339 337 338 335 340 340 339 342 338 339 342 341 340 338 337 337 340 343 343 343 343 342 342 344 342 342 340 339 338 338 338 337 337 335 332 334 334 338 336 336 326 328 328 323 320 319 324 327 329 329 329 331 330 330 332 331 333 332 331
323 326 329 333 337 338 338 338 338 338 337 337 338 337 337 337 338 338 335 336 338 339 338 339 340 341 341 341 343 340 336 337 339 341 340 339 338 342 340 343 336 338 339 341 340 342 343 341 341 338 341 341 339 338 337 337 337 337 336 336 335 329 329 332 336 335 331 326 320 321 320 320 316 318 321 326 329 330 329 330 331 331 332 332 331
322 327 328 331 336 335 338 334 336 337 337 336 337 336 337 337 338 338 337 337 338 338 336 338 336 337 339 339 339 336 338 337 335 335 337 340 338 338 340 340 342 342 341 340 340 342 343 343 340 340 341 340 339 338 337 336 335 336 337 335 333 332 328 331 332 335 334 334 327 321 319 317 317 319 320 320 327 327 329 330 330 330 330 331 331
323 326 326 330 335 335 325 322 322 324 332 338 338 337 337 337 338 338 338 338 337 336 336 336 334 335 335 333 331 332 331 331 330 331 332 334 335 342 341 340 341 341 340 339 338 339 339 340 342 339 340 340 340 338 336 336 336 334 335 335 335 334 331 329 329 333 334 333 333 331 328 321 319 321 320 313 325 327 327 329 330 331 331 330 330
324 327 326 331 335 329 327 326 326 326 328 338 338 337 338 338 338 338 338 338 339 335 335 337 336 335 334 333 332 331 330 331 335 334 334 336 340 338 339 343 340 341 338 338 339 339 341 341 343 340 339 341 339 340 339 335 334 333 335 334 334 334 334 329 329 330 333 334 333 334 333 331 330 322 318 319 315 321 326 326 327 331 329 329 329
327 327 329 334 333 327 325 326 325 325 328 335 337 339 338 338 338 338 338 338 338 336 334 335 335 336 335 334 333 333 333 332 334 336 336 337 338 338 339 341 339 339 340 337 339 339 340 340 341 342 340 339 339 339 340 340 341 339 338 337 336 335 334 332 330 331 328 328 333 331 332 333 330 329 327 321 318 315 318 325 326 327 328 327 328
325 326 330 331 327 328 327 326 327 327 330 334 336 338 339 340 339 339 339 338 336 334 332 334 335 336 336 335 334 336 337 335 335 336 334 336 338 339 340 337 339 340 339 339 338 337 338 339 339 339 340 337 335 335 337 336 337 340 338 338 336 336 335 335 332 330 331 329 329 328 330 330 329 329 329 326 320 317 316 319 319 325 326 327 326
326 328 325 330 329 328 329 329 327 326 331 336 337 339 339 339 339 339 338 336 332 332 332 332 335 336 335 335 334 332 335 336 337 334 336 338 337 338 339 337 337 340 340 338 338 337 338 338 338 337 339 338 336 335 336 337 336 336 339 338 337 336 337 335 333 332 332 333 332 331 329 326 326 325 326 325 324 323 317 317 319 319 318 321 326
324 327 327 328 329 328 328 327 327 327 331 336 336 337 339 339 339 338 337 332 331 331 331 330 333 335 333 335 333 331 332 335 333 334 335 333 331 335 337 338 338 337 340 340 341 338 339 339 338 337 339 341 337 335 337 334 337 337 338 338 337 336 336 335 334 334 335 333 330 329 326 328 325 323 322 323 322 320 318 318 320 321 320 319 323
324 324 327 330 328 328 327 327 327 329 331 336 336 338 338 339 338 337 334 332 331 333 331 330 331 332 333 333 332 332 333 332 330 331 334 333 333 334 336 337 336 337 338 337 337 338 340 339 340 338 337 339 339 339 337 336 336 337 338 338 337 336 336 334 333 333 332 331 331 333 332 331 330 327 326 325 324 323 322 318 318 320 320 321 323
323 323 324 325 327 328 327 328 330 332 331 336 337 338 339 338 336 332 329 331 332 334 330 329 331 331 331 332 332 333 335 334 332 334 335 334 333 333 333 333 334 334 336 335 338 336 338 338 338 338 337 338 339 338 338 339 337 337 336 336 336 335 335 334 333 333 333 330 332 332 331 331 331 332 331 330 329 326 324 318 319 321 317 318 320
320 321 323 324 325 326 328 330 331 332 332 335 335 336 334 331 331 330 329 332 332 331 327 326 329 331 333 332 333 333 333 335 335 335 336 335 335 333 333 333 334 334 335 336 337 335 338 339 339 338 338 338 339 338 337 339 339 336 337 336 334 335 335 335 334 334 335 332 333 331 330 329 331 333 332 331 327 325 324 320 318 318 318 315 316
319 321 320 320 321 325 324 323 323 324 325 333 331 333 331 331 330 329 329 329 329 330 330 328 329 330 331 332 331 332 333 333 331 330 334 336 335 334 336 336 335 334 335 337 336 337 337 336 338 338 337 337 336 337 336 335 339 337 338 336 337 336 335 335 334 333 334 332 333 333 333 331 331 332 333 332 330 327 326 324 319 315 315 314 312
320 320 318 318 322 323 321 320 322 320 325 328 327 330 330 331 332 331 329 327 327 329 329 329 329 330 331 330 330 332 332 332 330 328 330 333 335 335 336 337 336 335 336 335 335 337 335 336 337 337 337 336 336 336 337 334 336 336 337 338 335 334 335 334 334 333 333 334 332 333 332 333 333 332 332 332 331 328 329 330 327 317 311 308 312
323 321 319 319 320 322 323 320 320 322 324 326 324 326 331 331 331 330 329 329 327 329 328 328 330 330 329 330 331 332 331 330 329 328 329 334 336 337 334 336 336 336 335 335 335 336 335 335 333 335 337 337 338 337 335 335 334 335 334 336 334 336 334 332 334 334 334 334 334 333 333 331 333 333 332 332 334 331 330 331 330 324 318 310 308
320 320 321 322 323 323 322 325 326 325 326 321 323 326 328 330 330 328 328 326 327 329 327 329 330 331 330 331 331 331 330 329 330 331 332 333 335 337 336 335 334 335 334 335 336 334 335 335 334 334 336 337 336 336 334 334 333 334 335 336 336 336 335 335 334 333 333 334 333 332 332 332 331 331 331 331 333 333 329 330 330 327 325 318 310
322 320 320 320 319 320 322 323 324 325 325 324 324 324 324 325 328 329 328 328 327 329 329 330 332 332 332 331 330 330 330 330 331 331 332 333 334 335 335 335 336 334 333 334 334 331 334 335 333 332 335 335 335 335 334 332 333 332 334 335 336 336 334 334 334 333 334 333 332 332 331 332 331 330 330 330 332 331 329 329 329 327 325 323 313
320 322 322 323 322 322 321 322 324 323 323 323 324 324 325 326 327 327 329 329 328 329 329 330 333 331 331 332 332 331 332 332 332 333 333 332 333 334 334 333 333 333 333 334 332 330 331 332 332 332 333 333 333 334 332 334 334 334 332 332 332 334 334 331 334 334 331 333 331 332 331 330 331 330 329 329 330 330 329 328 327 327 325 325 322
318 319 321 322 323 325 325 326 325 327 324 324 325 327 328 328 328 329 328 328 328 329 329 331 332 331 331 331 331 330 331 331 333 333 332 332 333 333 334 333 331 331 331 331 331 329 329 331 329 329 329 331 331 332 332 334 331 330 331 332 330 331 327 328 329 331 330 330 330 328 329 330 331 329 328 328 330 329 329 329 328 326 325 323 323
316 318 320 320 321 323 325 325 323 322 323 326 326 327 328 328 328 329 329 329 328 328 330 332 332 331 331 331 329 329 330 331 332 332 332 333 332 333 333 331 331 329 329 329 329 331 330 331 327 327 329 326 328 329 331 332 330 329 330 333 332 328 327 326 327 326 328 331 332 331 328 329 331 330 329 328 329 329 327 326 325 324 322 322 323
315 316 317 318 319 320 322 326 325 324 324 325 325 323 322 325 328 327 328 329 329 329 331 332 329 329 331 330 329 328 328 328 330 331 331 331 332 333 332 332 330 328 330 330 330 331 330 329 327 328 326 326 327 328 331 331 329 329 327 329 330 327 327 326 326 326 324 326 329 330 329 330 331 328 327 327 329 328 327 325 323 323 323 320 319
314 314 315 315 316 317 317 318 320 323 322 321 323 323 323 325 326 328 328 329 329 329 331 331 327 328 329 330 330 329 329 329 329 330 330 331 332 332 332 332 330 328 328 332 330 330 330 331 327 326 326 324 328 326 330 329 327 328 328 328 328 329 326 326 327 324 323 324 326 328 329 331 331 328 328 326 327 329 327 328 326 323 322 319 323
311 312 312 313 313 312 312 312 313 316 320 321 320 321 321 322 324 326 329 330 330 330 330 329 327 329 332 332 331 330 329 329 329 330 330 331 331 331 332 330 330 329 327 332 327 332 328 330 331 328 324 324 325 325 327 328 329 330 328 329 327 326 328 327 328 325 326 325 326 328 329 327 327 329 327 325 325 324 326 324 322 322 317 319 322
309 309 310 309 309 309 309 310 310 312 315 319 320 320 322 322 324 325 325 326 329 330 330 330 327 327 329 329 330 330 329 329 329 330 330 331 331 331 332 329 328 327 328 328 326 329 325 325 327 327 322 323 323 324 326 327 326 328 329 328 327 328 327 326 320 325 325 326 326 327 327 328 325 326 326 326 324 324 323 322 321 319 314 317 317
307 307 307 307 307 306 306 307 309 310 312 315 316 317 321 323 323 323 325 327 328 329 329 327 325 326 325 326 329 330 330 330 330 330 331 332 330 331 330 331 329 328 326 326 327 326 329 326 323 327 322 322 322 323 325 326 327 326 328 326 327 326 326 329 323 325 326 326 326 326 326 326 324 326 327 326 326 324 323 321 320 322 319 317 316
305 304 304 303 303 304 305 305 306 308 309 312 313 314 315 319 322 323 325 325 328 327 327 327 326 326 327 328 329 332 330 329 329 330 329 330 329 329 329 330 328 326 324 324 325 324 328 327 328 325 323 322 317 314 312 314 318 325 327 327 326 326 326 324 327 327 324 324 326 328 328 327 327 327 328 327 326 325 326 323 321 323 322 315 314
302 302 302 301 301 301 303 304 304 305 306 308 309 310 312 314 316 317 319 325 327 326 326 325 326 327 325 327 331 333 331 330 331 329 328 328 329 327 330 329 327 325 328 324 325 323 323 326 322 323 322 320 315 309 304 302 309 313 319 326 327 326 325 324 324 325 323 324 326 328 328 325 324 319 311 311 310 314 323 325 325 324 321 319 317
299 299 300 300 300 301 301 302 302 303 304 305 306 307 308 310 312 314 316 321 325 325 324 325 324 325 326 326 329 331 329 328 326 325 325 323 325 328 329 326 323 323 326 323 323 323 324 321 322 321 320 316 311 307 299 296 298 304 314 321 326 324 324 324 322 323 322 325 321 324 326 322 316 314 308 301 299 302 307 312 314 318 322 321 323
298 298 298 299 299 300 300 300 301 302 302 303 304 306 307 308 310 312 313 318 324 324 324 324 324 325 325 325 325 327 326 323 324 325 324 324 324 323 324 322 323 324 324 323 323 321 322 323 321 318 314 310 305 299 294 292 293 295 309 315 320 323 322 322 323 323 322 322 318 317 317 317 315 315 310 301 299 298 297 298 298 302 307 318 320
297 297 298 298 298 299 299 299 300 301 301 302 303 304 304 305 307 308 310 313 315 317 318 318 320 322 323 323 324 324 326 325 324 323 323 323 323 322 323 321 323 323 324 324 321 320 319 318 315 312 310 306 302 295 292 293 293 293 296 310 319 322 323 322 321 321 321 321 320 318 318 321 322 320 318 315 310 300 298 298 298 298 298 297 302
296 296 296 297 297 298 298 299 300 300 300 302 303 303 302 304 305 306 306 307 309 310 312 313 315 317 318 319 318 317 317 318 320 322 323 322 323 324 323 323 323 324 322 320 317 316 315 313 310 307 304 303 300 293 292 292 292 292 291 302 319 321 322 321 322 323 321 322 321 321 321 326 322 323 321 319 317 314 299 296 299 304 305 301 298
296 296 296 297 297 298 298 299 300 301 301 302 303 302 303 304 304 304 304 304 305 306 308 310 311 311 313 313 315 315 315 317 317 316 316 318 319 319 320 322 322 322 320 318 317 314 312 310 308 306 303 300 298 293 292 292 292 291 291 295 318 324 324 323 322 323 323 323 321 321 323 322 322 320 314 314 321 315 315 314 316 316 317 314 304
296 296 296 296 296 297 297 298 299 300 301 302 301 301 302 302 302 301 302 302 302 303 305 306 307 308 310 311 312 312 313 313 313 312 311 312 313 314 314 315 317 318 318 317 317 315 312 310 307 306 303 301 297 292 291 291 291 292 292 298 320 325 322 323 322 323 322 323 323 324 321 320 316 309 302 298 311 321 320 319 318 319 318 319 318
296 296 296 296 296 296 296 297 299 300 299 300 300 301 300 299 301 300 300 300 300 300 301 303 303 305 305 307 309 310 310 310 309 309 309 309 309 310 311 312 312 313 314 315 315 314 312 311 311 309 305 301 298 291 291 291 291 291 295 314 321 323 323 322 323 324 322 323 323 323 323 318 311 304 296 293 296 307 321 319 319 319 320 320 321
297 297 297 298 299 298 298 298 298 298 298 298 300 300 300 299 299 299 299 299 298 298 299 300 301 302 303 304 305 306 306 307 307 307 306 306 307 308 309 310 309 309 309 309 309 310 311 310 309 307 304 300 297 292 291 291 291 291 297 311 317 320 322 323 323 326 325 316 314 319 323 315 306 300 292 292 294 303 320 320 319 319 320 319 319
297 297 296 297 298 299 299 299 298 298 298 298 298 298 298 298 298 298 298 297 297 297 298 299 299 301 302 303 303 304 304 305 305 305 306 306 306 307 308 308 307 306 306 307 308 307 307 308 307 306 304 301 297 294 291 291 291 291 296 306 311 315 322 322 322 323 318 308 303 305 310 305 300 295 289 290 292 304 313 314 315 316 318 318 317
297 297 295 296 296 297 298 298 298 297 298 299 298 298 296 296 297 297 298 297 297 298 298 298 298 300 301 301 302 303 303 304 304 304 305 304 305 306 307 308 308 307 307 308 308 306 305 307 308 308 306 301 297 295 291 291 291 291 295 304 311 311 308 308 312 313 314 306 301 296 296 294 294 291 289 289 290 298 304 306 306 309 310 313 307
297 298 297 297 297 296 295 296 296 297 298 299 299 297 296 295 296 297 296 296 298 299 300 300 300 300 300 301 301 302 302 303 303 303 304 305 305 306 307 307 308 309 308 307 306 305 304 305 307 308 306 302 298 296 293 291 292 292 293 303 305 301 300 302 304 305 308 308 303 299 295 291 290 290 290 289 289 291 298 301 304 304 305 307 304
296 297 297 297 297 296 295 295 295 296 297 298 297 297 296 296 296 296 296 297 298 299 300 301 301 301 300 300 301 301 301 302 303 304 304 304 305 305 305 305 306 307 308 307 307 307 306 306 306 304 302 303 300 296 294 291 292 292 292 296 299 296 297 300 302 303 304 307 305 300 296 292 291 291 291 290 290 289 291 298 302 303 304 299 296
296 296 296 295 295 296 296 296 296 296 297 296 296 295 295 296 296 295 297 298 299 299 300 300 301 301 301 301 301 302 302 302 303 303 303 303 305 306 305 305 305 305 305 306 306 306 305 305 306 303 301 301 301 299 296 292 291 292 291 293 297 297 295 300 302 302 303 304 305 302 299 293 291 291 291 291 291 291 290 297 300 296 294 293 298
295 295 295 295 294 294 295 296 297 298 297 296 296 295 295 295 295 296 298 299 299 299 299 300 300 301 302 302 302 302 302 303 303 303 303 303 304 304 304 305 304 304 304 304 306 306 305 305 305 305 301 300 300 299 295 295 291 291 291 291 290 294 291 300 298 298 300 301 302 300 299 295 291 291 291 291 291 290 291 296 294 293 292 290 291
296 296 296 296 295 295 295 296 297 297 298 298 297 296 296 295 295 298 298 299 300 300 300 299 298 300 301 301 302 303 303 302 302 303 303 302 303 303 303 305 303 304 304 305 305 306 305 306 305 304 304 301 301 300 295 294 293 290 291 291 290 288 289 295 298 301 301 301 299 298 295 291 292 292 291 291 291 291 293 292 291 290 289 289 295
296 297 297 297 296 296 295 295 296 297 297 298 298 297 296 296 297 299 299 299 299 300 299 299 299 299 299 300 301 302 302 303 303 302 301 301 301 302 302 303 304 304 305 303 303 304 304 305 306 305 304 303 302 302 299 295 291 291 291 291 290 290 290 288 298 301 300 299 293 290 291 291 291 291 291 293 295 296 294 292 290 288 291 296 300
298 298 298 298 298 297 297 296 296 298 298 298 298 297 296 298 300 299 299 300 300 299 298 299 300 300 299 300 300 300 299 298 299 299 299 299 300 301 300 300 301 301 301 301 300 302 302 304 305 304 303 304 305 303 301 300 297 296 296 293 291 289 291 292 292 294 292 291 291 291 292 292 294 295 297 297 297 298 294 292 292 293 297 299 299
297 298 299 299 298 297 297 297 296 297 297 298 298 299 299 299 299 299 299 300 299 300 299 299 299 300 300 300 299 299 298 297 297 298 298 298 299 300 298 297 297 297 298 300 301 300 300 301 302 303 304 301 298 297 296 296 297 296 297 297 299 301 296 293 298 298 295 297 297 296 296 293 293 293 292 292 292 293 294 297 298 300 300 300 300
298 298 298 298 298 297 297 298 298 298 298 298 298 298 299 300 300 300 299 299 298 299 300 300 300 300 299 302 301 294 297 297 297 296 296 296 298 299 297 295 295 295 295 297 298 298 298 300 300 299 300 299 296 294 293 292 293 292 294 295 296 297 296 296 296 293 293 295 296 294 296 299 300 300 300 300 301 301 299 298 300 301 301 300 300
298 298 299 297 298 298 298 298 298 300 300 299 298 298 299 301 302 302 301 299 298 297 297 298 299 301 299 299 300 301 301 299 298 296 295 294 293 296 297 294 294 294 294 295 297 296 296 297 298 296 296 297 295 292 291 288 288 288 288 291 292 293 292 293 292 288 290 293 295 296 297 297 299 293 293 297 297 297 295 298 300 300 299 300 300
298 300 299 299 299 299 298 298 298 299 299 298 298 299 300 299 300 300 300 301 300 298 298 297 297 297 297 298 299 299 301 300 299 297 296 295 290 290 292 296 293 289 289 290 291 293 294 296 297 295 295 294 292 291 288 287 288 288 288 287 288 288 288 289 288 286 287 289 289 291 292 294 294 293 292 292 292 292 292 292 294 294 294 298 298
298 297 298 298 298 299 299 298 297 298 297 297 298 298 299 299 300 300 300 299 299 298 298 298 297 297 296 298 299 299 301 302 302 299 298 294 295 294 290 289 290 290 289 288 288 288 288 290 294 294 290 288 287 286 287 288 288 288 288 288 288 288 288 288 287 288 288 289 289 290 291 292 293 295 292 292 292 292 292 292 293 294 295 295 292
Wind_Speed
10 8 7 6 3 6 6 7 8 8 8 8 10 11 11 11 11 13 10 7 6 8 8 8 8 6 6 6 6 7 7 10 6 6 5 5 7 8 9 6 5 4 5 4 3 4 3 4 3 3 3 3 2 3 2 2 2 2 3 1 3 5 4 4 5 6 6 5 3 4 3 4 7 7 6 4 2 1 2 2 4 3 2 3 2
13 11 10 7 7 8 8 8 9 10 8 10 11 10 10 10 11 10 8 9 6 7 7 8 7 6 6 7 6 6 6 5 6 7 6 5 7 8 7 3 6 5 5 6 3 3 3 4 4 3 2 3 4 3 2 2 3 2 2 2 1 4 2 3 5 6 3 4 4 3 4 5 4 5 5 5 2 3 2 3 4 4 3 3 2
10 11 9 9 10 9 8 8 10 8 8 9 9 9 8 9 10 8 8 7 8 6 6 6 5 5 5 5 4 4 3 3 5 5 6 5 5 4 6 7 5 5 7 5 4 3 3 4 3 2 2 3 5 3 4 3 3 3 3 3 3 3 3 2 3 1 3 4 3 4 3 2 2 4 5 4 2 3 3 2 3 4 3 2 2
13 12 12 12 10 9 8 8 7 7 6 7 8 9 9 7 8 9 7 8 7 4 5 6 6 5 6 6 5 3 3 5 5 2 5 7 7 4 5 6 9 10 7 6 4 3 3 4 3 3 3 3 3 3 3 3 3 3 3 2 3 4 4 1 2 2 4 6 4 1 3 2 4 3 4 2 1 3 4 2 3 4 2 1 2
14 15 13 12 11 11 7 4 4 4 6 6 7 8 7 9 9 9 9 9 6 6 6 7 6 5 7 6 4 6 6 5 3 2 1 2 3 5 5 7 6 4 4 5 4 4 3 3 4 4 3 3 3 4 3 3 4 3 3 3 3 2 5 2 1 2 3 1 3 3 2 1 2 5 7 1 1 2 1 4 4 4 4 4 3
14 16 16 12 12 8 12 7 2 10 9 6 8 9 9 9 10 9 8 7 7 8 7 7 6 5 6 6 5 4 4 4 5 5 4 3 4 2 3 5 6 4 4 4 6 5 4 4 3 4 4 4 4 3 4 3 3 4 4 4 3 4 4 5 2 2 3 3 2 2 1 1 5 5 5 4 3 0 2 2 4 4 4 4 3
13 13 14 13 11 13 11 8 8 7 12 9 8 8 8 9 9 10 8 7 7 9 8 7 7 5 6 6 6 6 6 4 3 4 4 5 4 5 4 4 4 5 5 5 5 5 3 3 3 3 5 4 4 2 2 4 4 5 5 3 3 5 3 3 5 4 4 2 3 2 2 2 2 4 3 7 4 2 1 2 3 3 5 5 5
15 16 17 14 13 14 12 10 11 15 12 7 7 7 9 9 10 11 8 7 6 7 6 5 4 5 5 5 5 4 4 5 5 5 4 3 4 4 4 4 5 4 4 5 5 5 5 3 3 3 4 3 3 3 2 2 0 2 3 3 3 5 3 2 4 3 3 3 3 3 2 2 3 3 3 3 6 6 3 1 1 2 1 2 2
15 14 15 15 16 15 13 13 14 12 8 8 9 10 10 10 10 9 8 8 11 5 4 5 4 3 4 4 4 3 4 6 4 3 4 3 2 2 3 5 5 4 4 5 5 6 5 4 4 3 3 3 3 4 3 3 3 0 3 2 3 4 4 3 3 3 2 3 4 2 1 3 3 3 3 3 3 6 6 5 3 1 1 2 3
10 8 7 11 12 12 12 13 12 10 8 10 11 9 10 10 10 10 9 10 9 8 3 1 2 6 5 2 4 3 3 4 4 4 4 4 4 3 3 4 4 3 4 4 3 4 4 4 4 4 3 3 3 3 3 3 4 3 1 2 3 4 3 3 3 3 2 1 2 4 2 2 3 3 1 2 4 2 4 7 7 7 5 2 2
11 16 13 7 8 11 10 12 8 7 6 6 10 9 8 9 10 11 11 12 12 12 12 10 4 3 7 6 6 7 5 5 3 4 4 6 5 3 3 4 3 4 3 3 3 3 3 3 3 4 2 2 2 3 2 3 3 4 3 3 2 4 4 3 3 3 2 3 3 4 4 4 3 2 4 2 2 3 4 6 6 5 7 5 4
11 8 9 10 7 2 3 4 6 9 7 5 7 6 7 7 9 11 11 10 10 11 10 8 7 3 5 5 6 5 6 5 6 5 6 7 6 5 4 4 4 4 4 4 3 3 2 2 2 3 3 2 1 2 3 3 4 4 3 2 2 2 4 4 4 3 4 4 3 2 1 4 2 4 5 4 3 3 4 6 6 7 7 4 5
12 8 8 6 3 6 6 6 7 7 7 5 5 5 5 5 7 12 10 9 9 11 11 9 6 6 6 3 4 5 4 6 6 5 5 6 5 5 4 4 4 4 3 4 3 5 3 2 2 2 3 1 1 2 2 2 2 3 3 3 3 3 3 3 3 2 5 5 4 2 3 2 2 2 4 5 3 4 4 7 6 6 7 7 7
11 7 3 5 2 2 3 7 8 2 4 7 5 6 8 9 10 12 12 11 11 12 15 14 8 5 3 3 2 5 4 4 3 3 4 4 4 5 5 4 4 4 3 3 4 4 3 2 2 2 3 2 2 1 3 2 2 2 3 2 3 3 3 3 2 3 1 6 4 4 3 2 2 2 2 3 4 5 3 5 6 4 5 6 5
12 3 2 5 4 4 4 7 7 2 6 6 3 6 8 9 10 11 11 10 10 11 13 17 15 14 8 4 1 2 3 4 4 3 2 0 3 5 4 5 5 5 4 4 5 3 3 3 3 2 3 3 3 2 4 4 2 1 0 3 2 3 3 2 2 3 2 4 4 2 3 2 3 4 4 2 3 4 3 3 4 7 5 3 7
14 7 1 9 8 5 3 3 4 4 8 3 4 5 4 7 9 11 12 11 9 12 13 14 13 14 12 9 7 7 4 3 4 2 3 4 5 4 4 4 5 5 4 5 4 3 4 3 2 3 3 3 3 3 2 4 3 2 1 1 3 3 3 3 3 4 2 2 5 3 3 2 2 2 2 1 1 4 4 1 2 5 5 5 3
8 8 10 11 8 2 2 7 9 9 4 1 3 1 10 10 11 13 12 10 10 12 11 13 14 14 15 14 12 8 8 7 7 5 4 5 4 4 5 4 4 4 5 5 4 4 4 3 3 3 2 2 2 2 2 3 4 2 3 1 1 1 3 3 3 3 3 2 3 4 3 4 2 3 2 1 0 4 3 1 1 1 4 6 4
8 6 1 4 3 2 6 8 9 8 8 6 8 17 10 6 11 10 13 14 12 10 9 12 15 16 19 17 13 11 9 8 6 5 5 6 4 3 4 5 4 5 4 4 3 4 3 3 4 4 3 1 2 0 2 3 4 2 3 2 1 0 1 2 3 3 3 2 3 4 3 3 3 4 2 1 1 3 2 1 1 1 1 2 4
5 7 7 1 4 7 6 6 4 2 5 11 12 9 3 4 6 9 11 9 10 7 9 8 9 8 11 17 16 12 9 7 7 8 8 7 5 4 4 4 5 5 5 3 3 4 3 3 4 3 2 2 1 2 1 3 3 3 4 2 2 2 2 1 3 3 3 3 3 4 3 2 4 3 3 0 1 3 3 1 0 2 2 3 5
9 10 10 5 6 8 7 5 5 12 8 7 5 4 5 6 9 8 7 7 7 5 7 9 8 5 6 11 13 13 10 9 9 9 7 7 6 6 5 5 5 5 4 3 4 4 4 4 3 4 2 3 2 2 1 2 2 2 4 4 3 2 2 4 1 2 3 2 3 3 2 3 4 4 2 3 2 2 2 2 1 3 4 3 1
13 12 11 11 11 11 7 4 7 6 9 8 5 6 6 6 8 9 9 9 8 7 7 8 8 7 7 9 13 12 9 8 7 8 7 6 6 6 5 5 5 5 4 4 3 4 3 4 4 3 4 3 3 2 1 3 2 3 2 1 3 2 3 4 3 3 4 4 4 6 7 4 4 4 4 2 2 2 2 2 3 3 2 3 2
12 12 12 12 12 11 10 9 7 3 0 1 4 2 3 2 3 5 6 7 8 8 9 8 8 8 9 8 10 10 10 7 5 8 6 7 7 6 5 5 4 5 5 4 5 3 3 3 4 4 3 4 3 2 2 1 3 3 2 2 2 3 3 5 3 3 3 2 2 2 3 5 5 6 4 4 3 3 3 4 4 3 3 4 3
12 13 12 13 13 13 12 9 8 5 6 6 5 2 2 6 4 2 2 5 8 10 9 8 5 5 9 9 9 10 12 15 10 7 7 7 7 5 5 5 5 5 3 3 4 3 4 3 4 3 4 4 2 2 1 2 3 3 3 3 3 4 3 5 3 3 3 4 2 1 2 3 4 4 6 3 3 3 3 3 5 4 3 4 4
12 11 11 11 13 14 14 16 14 10 4 4 5 8 7 3 3 6 7 8 9 10 9 9 8 8 10 11 11 11 14 14 13 10 9 8 7 7 5 5 4 4 4 3 4 3 3 2 4 4 4 5 2 3 1 2 4 2 3 2 1 2 4 3 3 3 3 5 3 3 2 1 1 4 4 6 3 1 0 1 2 3 4 5 2
12 13 13 13 14 14 14 14 14 13 11 7 5 6 4 7 6 5 3 6 10 10 11 12 9 10 11 11 11 11 12 13 12 10 10 9 8 7 6 6 4 4 4 3 6 2 3 2 3 2 4 3 3 2 1 1 2 1 2 2 1 2 2 3 2 4 5 4 4 3 7 6 6 2 0 6 9 5 3 2 6 5 5 3 3
12 12 13 13 13 14 15 14 13 13 12 10 8 6 4 5 5 5 5 6 5 7 9 10 9 9 10 10 10 9 11 11 11 11 10 8 7 7 5 6 5 4 4 4 3 3 3 2 2 2 5 3 3 2 2 1 3 1 1 2 2 1 1 1 6 2 1 5 3 7 6 2 3 1 1 3 6 11 9 8 8 9 4 3 3
12 13 12 13 14 16 15 14 13 13 13 11 11 11 9 6 5 5 6 6 6 5 4 5 6 10 8 10 8 8 9 9 9 9 9 8 6 6 5 3 5 4 5 4 3 3 1 3 3 2 5 4 3 1 1 2 1 2 1 1 2 3 1 1 4 3 3 2 4 10 6 5 2 1 2 3 3 5 4 5 8 4 2 4 5
13 14 15 15 15 14 15 14 15 14 13 13 12 12 11 10 7 6 5 5 3 3 4 6 8 10 11 9 9 7 8 8 8 10 9 8 7 6 5 3 3 5 4 4 3 4 2 1 3 3 4 8 10 9 8 7 8 5 2 1 3 3 1 4 2 2 5 3 7 7 6 5 2 1 0 2 6 1 2 4 4 1 3 4 4
15 15 15 16 15 14 14 14 14 14 15 14 13 12 12 11 9 8 8 4 3 4 2 7 8 5 6 6 7 7 8 7 7 7 8 8 5 4 3 3 4 4 3 3 3 4 3 2 5 9 10 8 8 7 5 6 6 7 8 1 1 2 2 2 1 2 4 1 7 5 6 5 4 4 4 6 4 5 4 2 2 3 3 3 1
15 15 14 14 14 14 14 14 14 15 14 13 12 12 12 11 11 10 7 4 5 5 6 4 6 5 6 7 6 7 8 9 10 9 7 7 4 1 2 3 5 3 3 4 3 4 2 4 9 10 9 8 6 5 7 8 6 4 5 6 1 1 2 0 4 2 3 1 7 4 4 9 6 4 5 9 10 9 9 6 3 5 5 3 2
14 14 14 13 13 14 13 14 14 15 14 12 11 11 11 12 12 10 10 8 7 7 4 2 5 2 5 8 5 5 8 7 9 9 8 7 4 6 4 4 4 3 4 4 4 6 7 8 10 9 8 7 5 5 10 6 6 9 7 5 6 3 0 2 2 2 3 3 8 5 5 6 5 3 4 6 9 9 9 9 10 8 6 4 4
13 13 13 13 13 13 13 13 14 13 13 13 12 11 12 13 12 12 11 11 10 10 8 8 6 5 5 7 4 5 7 7 9 9 8 8 5 3 4 4 4 5 8 10 10 9 9 8 9 9 9 7 5 9 11 12 10 10 7 5 4 3 2 3 1 1 1 4 6 6 5 4 4 4 3 3 5 7 8 8 8 6 6 5 4
13 14 14 13 12 12 13 13 12 12 13 13 11 10 13 12 12 12 14 14 12 10 9 9 8 9 7 8 8 8 9 10 10 9 7 6 4 3 7 8 8 8 9 9 9 10 9 9 9 10 9 7 5 12 13 13 12 11 11 7 3 6 0 2 0 1 6 5 4 7 5 3 5 8 4 3 3 2 5 6 5 3 1 4 3
13 13 13 12 11 11 11 12 12 11 12 11 11 10 9 10 11 12 15 15 13 12 10 10 11 11 10 9 9 10 10 11 12 12 11 8 5 7 6 7 7 8 9 9 9 10 9 9 9 9 8 7 7 11 13 14 13 13 11 7 4 6 1 2 4 4 4 3 5 5 2 4 4 5 8 7 1 4 2 1 0 0 1 2 3
13 14 14 13 13 13 12 12 12 12 11 10 12 12 10 12 12 13 12 12 14 13 12 11 11 11 11 10 9 10 10 11 11 11 10 8 9 10 10 8 8 8 8 8 8 8 8 9 9 8 8 7 6 12 13 14 13 13 13 6 5 3 5 3 5 4 2 3 2 4 2 8 8 7 6 8 7 2 2 3 3 3 4 4 4
11 12 12 13 14 13 13 12 10 10 11 11 11 11 12 12 11 12 12 11 12 14 13 13 13 12 12 10 10 12 11 11 11 11 11 9 8 9 10 8 8 8 7 8 7 7 8 9 8 8 8 8 7 14 13 14 14 15 13 5 5 1 2 3 4 5 4 4 4 3 6 8 8 7 9 12 10 7 3 2 1 2 2 4 4
9 10 11 10 10 12 11 10 11 12 12 13 10 10 10 11 12 13 12 12 13 15 14 14 13 12 12 11 11 11 11 10 10 10 10 9 8 9 8 7 9 8 8 9 8 8 7 7 7 8 8 6 6 12 14 14 15 16 11 6 5 4 1 1 1 1 2 9 8 7 7 8 7 8 10 14 15 11 4 5 4 4 4 4 3
9 10 11 12 10 10 11 11 12 13 13 11 11 10 11 12 13 13 13 14 15 15 13 13 13 12 11 11 11 11 11 9 10 11 9 8 8 6 6 6 8 8 8 7 6 8 8 7 8 8 6 6 6 10 14 14 15 16 11 7 6 5 2 1 0 1 7 7 11 18 13 9 9 7 11 14 15 11 7 7 7 7 6 6 6
11 11 12 13 12 12 12 12 12 13 11 11 10 11 11 13 13 12 13 14 14 13 13 12 12 11 11 11 11 11 11 10 10 9 8 8 8 8 6 7 8 7 7 4 5 7 7 6 6 7 10 8 5 8 13 14 15 15 13 7 7 7 8 9 8 7 8 7 7 11 16 12 8 8 12 12 13 11 6 6 6 4 5 4 5
11 11 11 11 11 13 14 14 14 12 10 10 9 10 12 12 12 11 14 14 12 11 9 9 10 12 11 11 10 11 11 10 10 9 8 8 7 6 6 6 5 4 4 5 5 6 6 4 4 7 7 7 7 6 10 14 14 16 16 9 8 8 8 8 7 7 4 7 7 7 9 12 12 11 10 11 10 10 7 5 4 4 4 5 6
11 9 8 9 11 12 13 14 11 11 11 10 10 11 12 11 12 14 12 11 9 9 9 8 9 10 11 11 10 10 10 10 8 7 6 6 6 6 6 7 7 6 6 6 6 4 4 3 5 7 7 7 7 6 8 13 14 15 16 11 7 7 5 6 6 6 6 4 6 5 5 8 10 8 7 7 6 5 3 2 1 2 2 3 4
11 11 11 10 11 11 11 12 12 12 12 11 11 12 11 10 11 13 11 9 8 8 8 8 9 9 8 8 9 8 7 6 7 6 6 5 5 4 4 4 5 5 6 5 1 3 4 4 6 7 7 8 8 9 6 10 12 12 13 13 8 6 6 5 5 6 6 5 6 4 4 6 7 7 8 7 4 1 2 2 3 6 7 4 3
11 12 12 11 11 12 12 11 10 10 10 10 11 12 11 10 12 10 8 8 9 9 9 9 8 8 8 7 7 7 6 7 6 5 6 7 5 5 5 5 4 4 5 3 0 2 4 3 4 6 7 7 6 5 8 7 8 10 10 10 9 7 10 6 4 3 4 4 6 5 5 11 10 8 5 4 5 6 5 5 8 7 6 2 3
11 11 11 10 11 10 10 10 9 9 9 8 9 9 9 10 10 7 7 7 8 8 9 10 10 9 8 8 9 8 9 9 9 7 7 6 5 3 3 2 1 0 1 2 2 0 2 2 4 5 7 6 5 5 6 9 7 7 7 6 5 5 4 4 4 3 5 6 6 5 6 11 13 14 13 10 9 5 5 9 9 9 5 4 3
9 10 10 9 9 9 8 8 7 7 7 7 7 8 8 8 6 6 7 7 8 7 7 7 8 9 8 8 7 7 8 8 7 8 8 7 7 6 4 2 1 2 1 2 2 1 2 2 2 3 5 8 6 6 4 5 6 3 3 4 4 5 5 3 5 5 5 5 7 9 10 11 11 12 11 11 9 9 8 4 3 2 2 3 4
7 7 7 7 8 9 9 8 8 7 5 4 5 5 6 5 5 6 6 6 6 7 8 8 8 7 8 7 8 8 9 10 10 8 8 8 8 7 8 9 9 7 5 4 3 1 2 2 2 4 4 5 8 6 5 4 4 3 3 6 6 4 7 5 2 5 8 10 10 10 11 11 10 10 7 6 6 8 12 15 16 11 5 5 5
7 7 7 6 5 7 8 9 8 7 6 5 4 3 4 4 5 5 4 4 5 6 6 6 7 6 7 8 7 6 7 8 8 7 7 7 7 7 7 7 6 6 7 8 7 8 7 6 5 4 4 10 7 7 6 6 7 7 6 7 6 7 6 7 5 8 10 7 9 9 8 12 12 14 13 11 9 9 8 8 6 5 4 5 5
4 5 5 6 6 6 6 5 4 4 5 6 6 5 6 5 4 3 2 3 4 4 4 4 4 3 4 4 5 5 7 6 6 6 6 5 5 5 6 6 5 6 6 6 7 7 8 8 7 8 7 7 7 6 6 7 6 6 5 6 6 6 6 6 5 6 6 7 7 8 9 7 7 6 4 1 1 1 1 3 6 7 7 7 6
3 3 3 3 4 6 6 5 4 2 2 2 3 5 6 3 1 1 2 2 2 4 5 5 3 3 2 2 2 2 4 6 5 5 5 4 3 4 5 5 5 3 3 4 5 6 5 6 7 7 6 6 6 6 4 4 4 4 4 4 5 4 5 5 5 8 7 6 6 6 5 7 6 3 5 6 5 6 5 5 6 6 7 6 6
2 4 3 3 4 4 5 6 6 6 3 3 4 2 3 5 5 5 5 2 2 4 4 3 3 4 4 3 3 3 2 4 5 4 5 5 7 9 8 5 4 4 9 10 9 5 3 3 6 6 5 5 3 2 0 2 3 2 1 3 4 5 5 4 7 9 4 3 3 4 5 6 4 4 5 5 4 4 3 4 3 4 4 4 4
2 2 3 3 3 4 5 7 7 7 8 6 3 6 6 4 5 6 5 5 5 3 4 2 3 3 2 3 2 2 2 1 2 6 4 4 4 7 12 14 11 7 7 9 9 9 9 9 6 4 4 8 7 3 2 2 2 2 3 3 5 6 5 5 5 4 2 3 4 5 5 4 6 6 5 5 5 5 6 5 5 5 6 7 6
Wind_Direction
149 170 184 162 176 143 163 161 153 167 177 191 177 176 169 166 160 161 155 174 179 159 154 146 147 157 151 149 153 126 180 159 158 138 142 140 157 176 192 187 167 200 199 223 226 165 170 131 145 160 180 147 118 99 136 134 130 111 126 109 140 135 123 150 150 128 115 84 95 114 112 86 92 106 110 102 108 86 83 102 99 96 71 68 49
161 168 149 162 183 170 168 159 168 184 189 195 182 177 173 163 170 158 151 160 207 181 153 141 165 159 148 154 155 142 147 151 136 139 159 148 173 191 138 211 170 211 196 206 204 162 153 148 152 167 163 129 110 150 126 136 134 151 133 133 141 120 124 135 130 138 124 131 144 116 94 88 105 95 107 115 134 128 106 91 85 101 101 88 71
183 161 149 171 178 165 181 166 173 182 186 191 183 174 176 168 173 149 148 160 195 192 144 142 156 129 135 136 129 121 125 139 134 129 129 163 166 177 131 170 195 200 222 185 181 162 174 147 164 138 168 144 146 150 147 152 172 150 157 153 150 126 106 114 104 34 115 100 82 101 117 121 79 92 59 54 30 88 68 66 103 94 88 92 82
175 172 171 180 175 168 175 187 173 160 183 184 183 172 171 168 170 137 163 179 166 155 109 128 83 71 79 73 66 79 110 75 57 87 137 154 162 152 190 147 183 211 199 174 172 182 162 151 162 170 181 158 152 146 169 153 154 169 151 173 141 139 141 94 106 108 108 134 141 142 136 134 123 95 111 91 160 119 132 132 119 123 128 129 128
176 170 173 178 169 174 165 44 19 166 180 189 179 179 172 174 165 156 162 166 158 125 121 89 97 100 105 101 86 86 71 88 87 83 54 136 140 171 169 198 201 184 181 168 153 166 177 171 170 171 149 163 165 169 168 181 169 173 158 122 181 156 133 118 115 115 117 64 107 132 124 104 130 142 122 48 54 78 161 158 127 146 157 164 155
182 173 176 175 169 116 67 105 91 334 288 203 188 180 172 171 166 164 167 164 150 126 130 119 151 139 139 138 135 136 133 142 157 173 171 175 183 184 192 174 202 167 190 182 161 165 178 173 171 164 156 160 185 167 178 181 182 178 167 159 175 94 112 139 128 123 119 132 96 84 86 135 142 157 152 132 208 130 130 146 157 173 161 156 171
179 168 171 165 144 115 121 117 135 162 240 218 193 180 175 170 164 171 169 164 147 146 138 130 141 163 159 162 155 166 150 161 145 156 172 193 167 185 189 182 183 175 178 185 140 154 165 170 183 171 158 169 167 166 203 177 188 193 156 167 159 121 131 143 146 156 138 140 136 131 136 102 86 147 131 137 125 351 51 177 174 181 184 162 163
170 174 167 160 128 121 126 164 168 200 205 197 178 178 174 175 171 172 168 152 119 118 118 79 128 152 166 163 161 161 147 154 163 162 172 174 178 184 176 170 191 176 175 158 153 152 157 164 175 169 156 164 144 157 201 168 74 177 154 151 125 127 130 136 139 132 153 127 137 148 141 132 133 105 138 155 132 139 154 163 94 247 161 127 131
174 161 159 146 124 145 155 173 191 192 195 188 180 183 173 172 170 164 155 132 85 107 87 119 191 160 144 148 147 130 143 145 157 158 164 184 190 187 185 168 180 163 176 155 167 156 155 160 164 153 163 156 178 179 180 160 140 71 117 115 125 118 138 120 104 112 107 135 145 126 167 134 141 105 147 152 128 136 141 154 155 164 98 70 133
151 72 63 109 130 143 167 179 183 182 197 189 182 177 174 165 162 158 146 94 94 114 111 222 181 129 106 192 158 125 136 140 161 166 177 135 178 193 188 165 170 155 156 152 158 143 156 154 156 158 160 162 195 160 164 142 137 122 122 137 141 123 101 107 116 120 130 137 108 90 100 123 107 115 69 94 83 114 140 149 154 149 135 116 151
100 93 117 135 148 167 170 186 168 184 223 201 175 175 171 163 159 154 125 111 121 140 170 185 170 140 159 189 168 159 167 149 142 178 172 145 189 199 182 158 144 156 136 137 152 143 156 151 152 137 162 139 211 136 155 140 127 126 160 148 155 141 125 134 123 127 117 104 101 121 192 174 153 150 142 159 158 143 146 147 158 155 132 146 198
96 91 116 135 146 123 168 202 170 190 209 220 172 164 158 157 160 135 100 109 133 138 158 169 157 151 201 194 186 190 169 155 169 190 177 171 176 174 170 149 157 154 156 143 168 141 121 134 141 140 150 159 187 113 133 129 132 132 143 138 138 129 143 139 164 163 133 132 128 157 151 87 103 119 148 173 167 163 145 137 142 146 144 154 187
73 60 28 4 78 145 193 225 205 193 190 200 147 124 101 88 106 106 107 131 144 143 139 148 135 167 199 204 211 198 190 167 182 196 174 169 167 168 155 165 152 147 152 147 143 123 136 134 137 131 110 131 130 148 129 103 114 138 151 152 142 147 143 146 140 160 138 125 139 122 126 132 110 130 157 168 127 129 141 143 157 165 151 154 173
86 97 161 242 233 115 184 210 214 238 205 180 140 101 102 104 104 122 143 160 155 149 148 156 158 161 176 207 262 197 207 156 134 162 179 163 172 162 168 162 143 151 152 145 119 127 128 137 133 137 130 145 145 108 109 107 145 144 146 168 150 141 134 143 156 136 128 124 135 143 148 155 169 164 158 124 144 140 155 163 156 155 155 157 155
96 96 316 284 276 124 66 18 337 299 281 251 172 127 100 116 128 133 140 155 167 163 160 162 153 149 158 181 232 260 218 207 184 140 8 95 180 168 163 137 153 153 158 137 131 143 137 156 159 139 131 131 117 117 118 115 99 27 55 141 111 129 143 143 139 125 144 147 125 125 121 153 204 169 138 181 157 161 165 179 172 155 181 152 161
109 98 37 286 316 12 48 46 44 311 232 249 255 112 123 135 145 144 157 172 175 173 173 157 144 144 142 141 196 206 202 188 192 127 109 219 205 168 147 141 144 148 140 129 144 156 132 146 130 128 128 110 125 134 137 137 141 139 70 90 157 161 143 155 136 136 162 138 142 159 146 193 156 119 153 171 205 140 175 275 217 172 133 141 200
75 133 183 202 216 195 191 183 203 215 255 358 150 149 181 172 157 163 171 179 179 181 173 143 147 150 151 163 180 179 183 172 180 167 179 242 168 156 140 144 130 127 128 130 155 132 143 145 161 118 100 119 125 146 163 156 141 146 136 151 143 156 150 173 145 147 159 133 118 163 144 181 138 129 113 116 80 120 167 244 341 245 161 158 182
89 85 310 282 287 194 190 194 208 199 149 96 160 188 188 129 166 161 170 180 182 181 163 153 160 166 161 162 167 174 170 179 175 155 181 219 158 136 126 124 126 122 121 128 128 125 148 150 118 110 127 145 122 170 191 131 121 135 116 103 198 152 137 136 141 152 148 149 150 154 182 171 133 127 140 155 100 107 145 193 231 219 208 198 143
86 137 185 161 341 325 321 288 233 21 118 184 214 218 112 147 165 179 185 187 180 169 160 157 171 185 169 158 159 160 162 181 181 169 191 178 150 138 132 122 120 117 119 128 137 136 132 118 107 128 139 138 156 168 317 98 125 132 119 137 166 173 170 126 156 159 153 165 172 176 157 148 126 123 112 42 184 116 147 197 224 294 305 261 145
30 31 35 67 141 197 210 263 163 149 179 238 233 252 226 183 175 171 177 177 181 171 152 168 172 190 190 159 150 150 161 177 168 170 158 154 147 133 125 121 119 125 126 141 147 145 150 140 140 140 160 141 181 111 203 145 123 140 133 161 163 161 205 138 91 179 140 179 166 140 194 164 135 130 141 178 202 140 161 163 183 268 257 277 95
22 21 22 23 20 22 23 92 56 121 149 194 215 232 216 201 178 177 172 169 176 182 166 169 161 177 188 171 154 148 149 160 153 152 153 154 141 129 130 131 129 130 145 152 155 144 155 144 154 149 152 177 125 144 207 93 147 110 101 229 157 160 191 144 174 154 161 178 188 153 189 146 148 140 139 190 207 151 168 225 233 224 244 298 204
17 17 19 19 18 16 28 40 69 16 192 69 220 181 258 181 178 180 177 177 182 178 178 167 169 172 184 177 160 149 137 131 147 157 160 140 129 134 141 139 140 131 157 162 142 148 137 156 166 141 175 156 141 143 136 142 169 114 157 200 138 183 233 149 165 158 175 136 129 156 161 162 159 153 142 170 177 177 188 195 224 208 212 237 232
18 17 15 15 17 19 18 35 52 64 6 18 340 69 236 312 333 335 248 180 186 190 179 158 150 197 186 174 162 156 144 150 171 170 152 137 134 141 139 136 129 146 156 158 128 142 140 199 132 172 184 121 147 118 125 223 115 152 159 206 179 209 195 112 146 176 192 150 125 152 139 165 143 168 164 156 172 210 207 203 197 211 228 225 177
15 13 17 16 15 18 19 13 18 32 51 344 352 23 17 349 268 194 201 201 186 185 187 167 177 208 194 177 166 162 157 159 161 157 147 144 143 139 142 139 138 150 150 146 125 148 139 203 140 207 137 105 140 105 182 225 129 165 202 147 235 69 91 133 170 197 201 131 151 113 94 57 217 163 150 138 185 303 345 347 267 233 233 219 159
19 16 14 13 15 19 17 14 14 13 16 30 13 16 5 306 296 303 295 212 187 186 190 180 191 201 189 172 167 164 156 156 150 147 144 146 139 137 142 136 140 158 152 139 120 149 138 197 140 204 114 120 110 153 167 260 121 194 136 161 178 140 165 173 184 73 46 108 114 108 72 50 315 56 169 167 163 186 197 223 244 257 227 176 113
21 15 16 20 20 16 15 15 14 13 9 7 9 352 291 268 289 302 304 306 269 205 197 177 174 204 191 175 163 157 151 149 144 141 140 137 135 138 138 138 160 153 120 105 138 154 154 152 166 213 118 136 135 183 179 218 115 107 230 96 208 132 120 91 62 349 65 65 126 92 93 91 135 141 286 273 167 167 191 201 215 232 179 132 105
26 19 15 17 20 17 14 14 12 11 7 5 10 4 345 306 287 298 317 310 303 275 239 146 185 211 179 192 161 154 144 141 140 131 128 134 141 127 123 143 153 137 126 121 166 125 158 150 185 143 126 163 147 95 38 31 149 151 83 130 28 78 259 84 132 204 116 79 83 102 138 138 84 66 315 314 278 168 204 217 215 229 174 134 148
24 22 20 19 15 14 14 14 13 10 8 7 6 5 355 358 351 343 334 335 306 267 227 161 200 199 181 157 156 156 135 131 131 134 136 136 139 131 142 174 126 125 138 146 154 134 141 177 167 123 83 56 53 46 30 24 10 354 96 94 77 346 358 54 21 14 83 81 103 121 108 98 126 125 79 345 313 348 257 228 230 277 89 150 161
23 20 19 18 14 12 13 15 14 12 12 10 7 3 5 357 359 2 357 353 35 75 79 174 194 188 134 148 132 126 133 115 100 96 91 76 81 109 128 155 122 124 138 122 131 113 166 181 86 64 68 64 56 44 33 12 357 7 357 31 156 157 314 109 57 314 76 53 93 114 123 128 131 135 121 120 95 67 51 13 10 6 76 129 154
23 20 17 17 15 13 15 15 18 15 13 13 9 7 4 6 5 355 356 343 64 83 127 148 165 204 139 116 103 112 111 97 94 89 95 96 58 31 194 138 118 129 142 122 122 132 113 90 83 70 64 60 53 53 18 16 32 343 2 350 1 39 263 89 173 208 107 79 105 104 112 120 124 110 70 65 73 70 69 73 59 36 18 25 11
23 21 19 19 19 17 15 19 20 20 19 15 15 11 4 9 4 354 355 7 74 93 54 77 148 183 130 122 124 115 110 94 94 104 107 93 70 355 291 125 117 110 102 99 82 62 49 55 72 74 63 56 47 22 360 15 22 28 29 4 358 336 27 300 46 332 149 134 119 111 102 119 122 119 92 74 87 84 82 76 74 78 66 49 20
23 23 22 21 22 19 19 20 21 24 25 22 17 15 18 13 8 6 360 10 40 52 56 42 33 61 66 84 77 44 82 105 118 119 113 96 86 217 253 105 107 97 68 66 69 70 69 66 67 65 60 49 43 6 8 16 17 23 35 11 345 320 37 343 82 325 41 115 118 128 140 139 145 144 140 128 90 75 81 75 64 76 84 48 68
29 30 28 27 24 22 22 24 26 24 27 21 17 20 23 15 20 17 23 19 27 40 45 47 38 54 53 71 76 78 74 76 76 77 85 98 124 130 72 65 61 74 81 72 71 72 71 70 68 66 59 43 34 7 8 15 16 15 12 2 355 324 256 252 324 78 45 9 119 138 147 129 103 135 155 155 141 114 67 59 61 11 4 173 165
37 36 35 29 26 26 23 24 27 25 25 24 24 23 16 19 29 26 38 30 22 26 33 48 50 44 46 54 60 65 67 73 77 75 74 79 93 76 64 68 76 74 79 82 75 75 78 75 73 71 60 43 28 3 11 15 15 7 1 356 308 307 333 11 67 40 55 48 44 44 89 124 124 53 19 3 224 146 139 137 169 232 255 289 267
37 38 37 33 31 29 24 22 19 19 18 23 31 26 16 24 26 36 28 44 34 27 26 34 49 48 40 38 46 49 58 64 68 74 68 69 78 78 64 49 60 66 71 77 79 78 77 81 80 75 69 49 27 9 18 18 13 7 352 336 295 344 3 355 41 48 47 36 49 63 55 59 62 50 23 360 4 5 170 186 194 198 214 211 211
26 34 36 40 38 34 31 22 12 13 22 26 30 28 34 34 29 40 35 33 45 36 26 27 38 39 43 33 41 59 55 66 66 70 70 59 52 67 74 67 62 59 62 72 71 73 74 80 80 79 69 49 28 17 18 19 15 6 356 346 325 320 9 22 24 21 5 11 23 30 63 75 64 46 16 13 16 343 347 4 339 294 249 223 213
14 18 30 38 46 45 38 31 30 30 31 28 21 28 37 38 35 39 36 37 40 44 29 24 30 35 39 39 41 54 60 63 69 66 69 63 55 52 61 66 72 59 57 54 58 53 55 70 79 82 80 63 36 17 19 21 18 12 6 354 339 343 311 54 114 129 38 46 29 29 69 78 66 47 11 22 11 12 1 9 345 339 321 322 311
24 22 27 26 32 44 45 38 34 37 33 29 27 27 37 38 36 33 36 35 40 38 32 31 27 23 31 38 41 47 53 53 59 64 62 68 71 62 60 67 78 76 65 55 55 60 56 56 62 67 72 72 51 24 24 24 21 14 5 0 336 333 355 82 46 91 81 70 48 42 45 59 57 41 24 31 18 16 25 14 11 354 346 326 18
34 31 29 25 27 32 38 42 40 39 32 32 34 31 34 42 37 34 37 37 36 35 31 30 28 27 31 35 39 44 47 47 51 49 52 59 56 57 49 61 73 75 78 66 70 73 68 59 64 83 84 74 58 32 28 30 27 21 13 353 359 14 28 10 11 24 72 76 64 54 57 62 65 47 43 39 31 27 36 18 4 347 341 350 33
31 32 34 33 30 34 35 35 35 34 32 31 32 42 42 42 37 30 38 39 31 32 34 34 32 30 30 30 32 38 38 40 46 46 43 46 51 52 50 63 61 73 83 96 94 89 94 103 84 72 80 84 69 39 29 37 35 30 21 22 34 30 19 3 5 355 49 88 70 68 50 50 53 50 49 46 44 41 35 9 0 357 334 341 355
36 32 31 38 37 38 37 33 29 26 26 29 33 43 41 39 38 40 33 31 27 32 33 36 44 42 35 31 31 33 33 33 36 43 38 44 49 53 50 56 60 53 62 75 84 92 100 118 107 92 83 75 77 71 44 40 42 39 35 36 45 34 10 357 352 347 355 55 92 78 86 42 41 38 42 46 63 72 64 359 320 313 317 309 336
36 37 36 41 41 40 41 38 30 27 25 25 32 41 38 35 38 40 30 20 23 25 33 44 47 51 49 42 36 32 37 43 43 38 41 49 49 57 64 60 67 75 71 56 48 130 120 128 123 110 94 87 78 76 63 45 48 49 48 46 47 38 3 345 356 360 3 20 69 57 55 51 41 20 2 360 340 338 264 250 250 243 265 313 316
21 30 36 41 42 39 36 36 32 32 31 29 33 38 33 29 39 36 30 28 25 22 25 34 35 42 47 45 41 37 36 35 37 36 38 36 32 44 38 48 57 83 99 133 284 127 141 132 123 116 110 103 97 91 99 87 63 59 53 55 47 36 360 15 8 355 355 351 54 35 5 351 356 2 2 339 314 299 282 258 271 275 277 300 274
29 26 24 35 46 43 41 39 38 37 32 29 26 35 31 33 33 17 22 26 29 32 26 30 32 19 32 35 36 33 30 28 25 25 27 26 27 41 44 48 62 135 102 96 104 305 95 155 146 131 127 117 106 93 79 90 78 63 63 60 46 18 24 1 336 330 11 19 7 3 344 340 341 338 337 335 321 283 249 266 279 291 324 294 257
24 22 18 23 32 39 46 44 39 47 45 32 24 37 33 34 14 13 27 26 21 25 35 31 28 29 28 32 28 31 30 19 20 23 25 18 16 13 13 354 19 23 42 107 139 131 113 79 86 129 130 126 127 113 105 96 100 98 41 25 12 339 332 14 354 7 4 356 327 317 323 327 323 321 323 328 328 328 331 355 352 4 283 250 247
25 17 19 24 28 27 32 41 41 32 41 57 52 36 40 43 44 28 18 24 33 34 35 33 27 20 22 23 27 28 45 43 40 36 34 21 7 17 27 21 15 12 12 24 15 26 92 82 70 68 80 110 108 89 73 57 39 21 353 357 334 320 311 323 350 302 319 318 321 320 321 320 320 314 320 314 314 302 313 314 311 302 266 268 269
22 9 5 20 30 36 36 34 37 27 21 22 55 52 53 41 55 60 35 21 37 48 41 40 39 23 11 14 25 32 49 46 37 35 32 29 31 39 37 29 26 19 7 7 28 28 26 24 31 33 62 70 66 58 41 32 32 12 7 354 4 353 347 329 359 18 360 347 331 329 309 295 279 277 273 267 268 287 303 300 284 272 270 267 268
1 22 16 18 19 22 22 33 38 36 26 17 16 36 59 54 58 57 53 36 29 32 53 66 58 50 23 12 18 38 76 70 60 50 41 32 32 59 58 40 27 15 12 16 28 32 25 17 18 19 33 65 51 47 30 21 19 17 2 359 356 5 5 1 11 355 339 326 320 310 300 280 275 260 265 276 252 218 290 340 352 7 360 352 332
34 16 28 33 5 19 8 353 347 41 58 31 47 22 29 61 86 134 166 108 94 72 54 37 14 22 12 348 18 24 102 108 91 72 62 52 15 7 73 74 45 18 39 32 43 48 27 9 39 29 23 40 44 35 28 359 22 17 16 355 0 353 348 333 6 358 329 319 321 314 311 319 307 359 35 29 21 14 7 7 4 357 352 339 349
15 33 0 7 24 4 6 353 343 347 60 53 11 27 65 48 36 24 12 3 130 111 83 62 46 17 1 8 22 9 33 104 117 99 91 70 56 46 28 95 109 69 65 63 74 79 36 7 60 58 40 55 43 57 33 355 9 2 320 296 281 289 289 297 309 311 275 294 303 315 313 294 320 12 25 32 14 14 7 8 349 345 336 333 331
352 332 354 346 11 18 357 352 349 341 355 4 51 8 350 31 73 46 23 14 13 74 113 111 72 35 1 306 45 1 29 11 105 131 116 96 79 36 36 40 50 58 65 77 85 87 72 59 67 96 77 94 115 113 42 349 340 333 323 309 302 300 318 319 340 350 340 316 327 313 305 342 9 12 26 19 13 17 13 3 352 349 339 343 335